TimeCDT,TemperatureF,Dew PointF,Humidity,Sea Level PressureIn,VisibilityMPH,Wind Direction,Wind SpeedMPH,Gust SpeedMPH,PrecipitationIn,Events,Conditions,WindDirDegrees,DateUTC
12:58 AM,82.6,75.2,78,29.91,10.0,WSW,9.2,-,N/A,,Partly Cloudy,240,2013-09-01 05:58:00
1:58 AM,81.7,76.3,84,29.90,10.0,WSW,5.8,-,N/A,,Clear,250,2013-09-01 06:58:00
2:58 AM,80.8,76.6,87,29.90,10.0,Variable,3.5,-,N/A,,Clear,0,2013-09-01 07:58:00
3:58 AM,80.1,75.6,86,29.90,10.0,Variable,2.3,-,N/A,,Clear,0,2013-09-01 08:58:00
4:58 AM,78.4,75.0,89,29.90,10.0,Calm,Calm,-,N/A,,Clear,0,2013-09-01 09:58:00
5:58 AM,78.3,75.2,90,29.91,10.0,Calm,Calm,-,N/A,,Clear,0,2013-09-01 10:58:00
6:58 AM,78.8,75.7,90,29.92,10.0,Variable,1.2,-,N/A,,Clear,0,2013-09-01 11:58:00
7:58 AM,80.8,75.7,85,29.95,10.0,Calm,Calm,-,N/A,,Clear,0,2013-09-01 12:58:00
8:58 AM,83.1,75.7,78,29.95,10.0,Variable,2.3,-,N/A,,Clear,0,2013-09-01 13:58:00
9:58 AM,86.2,75.9,71,29.96,8.0,Variable,2.3,-,N/A,,Clear,0,2013-09-01 14:58:00
10:58 AM,89.1,76.3,66,29.95,10.0,Variable,3.5,-,N/A,,Clear,0,2013-09-01 15:58:00
11:58 AM,90.5,73.8,58,29.96,10.0,Variable,3.5,-,N/A,,Clear,0,2013-09-01 16:58:00
12:58 PM,90.3,74.8,60,29.95,10.0,SW,10.4,-,N/A,,Partly Cloudy,230,2013-09-01 17:58:00
1:58 PM,90.9,74.5,58,29.93,10.0,SW,11.5,-,N/A,,Clear,220,2013-09-01 18:58:00
2:58 PM,89.4,76.5,65,29.91,10.0,SW,13.8,-,N/A,,Clear,230,2013-09-01 19:58:00
3:58 PM,90.0,75.9,63,29.90,10.0,SW,11.5,-,N/A,,Clear,230,2013-09-01 20:58:00
4:58 PM,88.7,74.5,63,29.89,10.0,SW,12.7,-,N/A,,Clear,220,2013-09-01 21:58:00
5:58 PM,87.8,73.8,63,29.89,10.0,SSW,11.5,-,N/A,,Clear,210,2013-09-01 22:58:00
6:58 PM,85.3,76.5,75,29.88,10.0,SSW,12.7,-,N/A,,Clear,210,2013-09-01 23:58:00
7:58 PM,83.7,76.3,78,29.88,10.0,SW,10.4,-,N/A,,Clear,230,2013-09-02 00:58:00
8:58 PM,83.5,76.3,79,29.91,10.0,SW,10.4,-,N/A,,Clear,220,2013-09-02 01:58:00
9:58 PM,83.3,75.6,77,29.93,10.0,WSW,5.8,-,N/A,,Clear,250,2013-09-02 02:58:00
10:58 PM,82.8,76.3,81,29.94,10.0,WSW,3.5,-,N/A,,Clear,240,2013-09-02 03:58:00
11:58 PM,82.6,76.8,83,29.93,10.0,SW,8.1,-,N/A,,Clear,230,2013-09-02 04:58:00